Location: Newark
(42.7133°N, 87.7910°W)
Time: 23:36:10
(UTC+00:00)

A-11 Canister half - Pass Details

Date: 01 October 2019
Orbit: 1527 x 1682 km, 47.3° (Epoch: 20 October)

Event Time Altitude Azimuth Distance (km) Brightness Sun altitude
Exits shadow 08:30:55 74° 308° (NW) 1,599 8.8 -35.3°
Maximum altitude 08:31:33 77° 344° (NNW) 1,584 8.9 -35.2°
Drops below altitude 10° 08:41:09 10° 71° (ENE) 3,783 11.8 -33.7°
Sets 08:44:17 0° 73° (ENE) 4,789 12.6 -33.3°
